Time,No,PCBTemperature,PCBBatVol,Dn,Dm,Dx,Sn,Sm,Sx,Ta,Tp,Ua,Pa,Rc,Rd,Ri,Output0,Output1,Output2,Output3
Time,No,PCBTemperature,PCBBatVol,Wind_direction,Wind_direction,Wind_direction,Wind_speed,Wind_speed,Wind_speed,Air_temperature,Internal_temperature,Relative_humidity,Air_pressure,Cmumulative_rainfall,Rainfall,Rainfall_intensity,Output0,Output1,Output2,Output3
#,,,,minimum,mean,maximum,minimum,mean,maximum,,,,,,,,,,,
2019/5/13 14:35,1,33.01,6.87,55,80,173,0,1.1,4.3,25.5,27.1,51.1,1008.9,82.14,12580,0,0,0,0,62.6
2019/5/13 14:40,2,32.76,6.85,8,9,334,0,1.1,3.4,25.8,27.4,50.3,1008.7,82.14,12580,0,0,0,0,62.6
2019/5/13 14:50,3,32.32,6.85,102,17,119,0.1,1.3,4,24.8,26.9,51.4,1008.8,82.14,12580,0,0,0,0,62.6
2019/5/13 15:00,4,31.83,6.85,65,34,105,0.1,1.5,4.2,23.5,25.6,52.8,1008.8,82.14,12580,0,0,0,0,62.6
2019/5/13 15:10,5,31.39,6.85,76,16,295,0,1.3,3.8,23.3,24.7,54.4,1008.8,82.14,12580,0,0,0,0,62.6
2019/5/13 15:20,6,31.19,6.85,138,200,195,0,0.8,2.1,24.6,25.3,48.6,1009,82.14,12580,0,0,0,0,62.6
2019/5/13 15:30,7,31.19,6.85,282,337,322,0.1,0.9,2.4,24.5,25.5,46.2,1008.9,82.14,12580,0,0,0,0,62.6
2019/5/13 15:40,8,31.21,6.85,67,270,230,0.1,1.1,3.1,24.2,25.2,49.7,1008.9,82.14,12580,0,0,0,0,62.6
2019/5/13 15:50,9,31.17,6.85,42,356,83,0,0.7,2.1,24.2,25.2,51.2,1008.9,82.14,12580,0,0,0,0,62.6
2019/5/13 16:00,10,31.1,6.85,46,311,302,0,0.7,2,24.4,25.3,49.2,1008.9,82.14,12580,0,0,0,0,62.6
2019/5/13 16:10,11,30.98,6.85,129,286,167,0,0.7,1.8,23.9,25,51.2,1009,82.14,12580,0,0,0,0,62.6
2019/5/13 16:20,12,30.86,6.85,48,287,149,0,0.7,2.2,24.3,25.1,50.6,1008.9,82.14,12580,0,0,0,0,62.6
2019/5/13 16:30,13,30.81,6.85,75,286,335,0,0.7,2.8,24.2,25.1,51.1,1008.9,82.14,12580,0,0,0,0,62.6
2019/5/13 16:40,14,30.74,6.85,114,324,119,0,1.1,2.8,23.9,25,52.5,1008.7,82.14,12580,0,0,0,0,62.6
2019/5/13 16:50,15,30.49,6.85,126,325,129,0.1,0.8,2,23.6,24.8,55,1008.8,82.14,12580,0,0,0,0,62.6
2019/5/13 17:00,16,30.18,6.85,171,84,174,0,0.7,2.3,23.8,24.6,54.5,1008.7,82.14,12580,0,0,0,0,62.6
2019/5/13 17:10,17,29.92,6.85,17,217,30,0,0.7,2.2,23.8,24.4,55.2,1008.6,82.14,12580,0,0,0,0,62.6
2019/5/13 17:20,18,29.77,6.85,68,266,305,0,0.6,2.3,23.8,24.2,55.8,1008.5,82.14,12580,0,0,0,0,62.6
2019/5/13 17:30,19,29.66,6.85,75,297,304,0.1,0.7,1.7,23.2,23.9,59.9,1008.4,82.14,12580,0,0,0,0,62.6
2019/5/13 17:40,20,29.46,6.85,88,6,102,0.1,0.9,2.5,22.4,23.3,62.4,1008.5,82.14,12580,0,0,0,0,62.6
2019/5/13 17:50,21,29.08,6.85,114,341,147,0,0.6,2,22.3,22.9,64.2,1008.6,82.14,12580,0,0,0,0,62.6
2019/5/13 18:00,22,28.75,6.85,115,14,149,0,0.6,2,22,22.5,66.2,1008.5,82.14,12580,0,0,0,0,62.6
2019/5/13 18:10,23,28.49,6.85,103,316,349,0,0.7,1.4,22.3,22.7,65.6,1008.6,82.14,12580,0,0,0,0,62.6
2019/5/13 18:20,24,28.2,6.85,34,296,180,0,0.5,1.6,22.1,22.5,66.8,1008.7,82.14,12580,0,0,0,0,62.6
2019/5/13 18:30,25,27.92,6.84,46,290,294,0,0.7,2.3,21.9,22.3,65.1,1009,82.14,12580,0,0,0,0,62.6
2019/5/13 18:40,26,27.67,6.85,298,236,0,0,0.9,2.5,21.7,22.1,68.4,1009.1,82.14,12580,0,0,0,0,62.6
2019/5/13 18:50,27,27.41,6.84,307,222,353,0,0.7,2.2,21.5,21.8,68.6,1009.1,82.14,12580,0,0,0,0,62.6
2019/5/13 19:00,28,27.17,6.84,292,272,294,0,0.6,2.1,21.4,21.7,68.9,1009.4,82.14,12580,0,0,0,0,62.6
2019/5/13 19:10,29,26.91,6.84,68,228,337,0,1,3,20.9,21.4,71.8,1009.5,82.14,12580,0,0,0,0,62.6
2019/5/13 19:20,30,26.56,6.84,91,239,285,0,0.9,2.8,20.5,20.9,74,1009.5,82.14,12580,0,0,0,0,62.6
2019/5/13 19:30,31,26.19,6.84,125,227,261,0,1.3,3.4,20.1,20.4,76,1009.6,82.14,12580,0,0,0,0,62.6
2019/5/13 19:40,32,25.92,6.84,84,228,351,0,1,2.2,20.1,20.3,75.9,1009.7,82.14,12580,0,0,0,0,62.6
2019/5/13 19:50,33,25.77,6.84,58,239,247,0,1.5,2.8,20,20.2,76.7,1009.9,82.14,12580,0,0,0,0,62.6
2019/5/13 20:00,34,25.62,6.84,30,257,82,0,0.9,2.1,20.3,20.4,74.8,1009.9,82.14,12580,0,0,0,0,62.6
2019/5/13 20:10,35,25.5,6.84,152,233,269,0.5,1.5,2.7,20,20.2,75.4,1010,82.14,12580,0,0,0,0,62.6
2019/5/13 20:20,36,25.42,6.84,111,243,309,0,0.5,1.8,20.2,20.4,75.4,1010,82.14,12580,0,0,0,0,62.6
2019/5/13 20:30,37,25.34,6.84,4,270,112,0.1,0.9,2,20,20.3,75.7,1009.9,82.14,12580,0,0,0,0,62.6
2019/5/13 20:40,38,25.18,6.84,30,285,91,0,0.7,1.3,20,20.2,74.9,1009.9,82.14,12580,0,0,0,0,62.6
2019/5/13 20:50,39,25.06,6.84,266,302,344,0.2,0.7,1.2,19.9,20.2,75.4,1009.9,82.14,12580,0,0,0,0,62.6
2019/5/13 21:00,40,24.97,6.84,131,22,277,0.1,0.7,1.8,20,20.1,76,1009.9,82.14,12580,0,0,0,0,62.6
2019/5/13 21:10,41,24.86,6.84,114,22,167,0.1,0.7,1.7,20.2,20.3,74.6,1009.9,82.14,12580,0,0,0,0,62.6
2019/5/13 21:20,42,24.7,6.84,313,9,345,0,0.6,1.5,20.2,20.3,75.2,1009.9,82.14,12580,0,0,0,0,62.6
2019/5/13 21:30,43,24.58,6.84,114,334,223,0,1,2,19.8,20.2,76.1,1009.8,82.14,12580,0,0,0,0,62.6
2019/5/13 21:40,44,24.42,6.84,265,22,329,0,0.7,1.7,19.5,19.8,78.1,1009.7,82.14,12580,0,0,0,0,62.6
2019/5/13 21:50,45,24.32,6.84,143,0,210,0,0.4,1,19.6,19.9,78.2,1009.7,82.14,12580,0,0,0,0,62.6
2019/5/13 22:00,46,24.24,6.84,20,324,231,0.1,0.7,1.3,19.6,19.8,78.2,1009.6,82.14,12580,0,0,0,0,62.6
2019/5/13 22:10,47,24.12,6.84,83,343,126,0,0.6,1.2,19.5,19.8,78.8,1009.6,82.14,12580,0,0,0,0,62.6
2019/5/13 22:20,48,23.96,6.84,104,7,187,0,0.9,1.5,19.3,19.7,80.2,1009.6,82.14,12580,0,0,0,0,62.6
2019/5/13 22:30,49,23.81,6.84,108,340,210,0.1,0.7,1.5,19.4,19.6,80.3,1009.5,82.14,12580,0,0,0,0,62.6
2019/5/13 22:40,50,23.68,6.84,60,344,188,0,0.6,1.3,19.5,19.7,79.8,1009.5,82.14,12580,0,0,0,0,62.6
2019/5/13 22:50,51,23.54,6.84,30,322,114,0,0.8,1.4,19.5,19.8,79.4,1009.4,82.14,12580,0,0,0,0,62.6
2019/5/13 23:00,52,23.5,6.84,103,339,257,0.1,0.8,1.4,19.5,19.7,80,1009.2,82.14,12580,0,0,0,0,62.6
2019/5/13 23:10,53,23.46,6.84,61,344,132,0,0.6,1.1,19.6,19.8,79.5,1009.1,82.14,12580,0,0,0,0,62.6
2019/5/13 23:20,54,23.43,6.84,78,338,254,0,0.6,1.2,19.7,19.9,79.1,1009.1,82.14,12580,0,0,0,0,62.6
2019/5/13 23:30,55,23.41,6.84,45,350,149,0,0.7,1.4,19.9,20,78.5,1009.1,82.14,12580,0,0,0,0,62.6
2019/5/13 23:40,56,23.38,6.84,43,331,116,0,0.6,1.5,19.8,20,78.9,1009,82.14,12580,0,0,0,0,62.6
2019/5/13 23:50,57,23.37,6.84,30,332,55,0,0.5,1.2,19.8,20,79,1008.8,82.14,12580,0,0,0,0,62.6
2019/5/14 0:00,58,23.34,6.84,133,346,187,0,0.7,1.8,19.8,20,78.7,1008.7,82.14,12580,0,0,0,0,62.6
2019/5/14 0:10,59,23.22,6.84,64,2,255,0,0.9,1.8,19.8,20,78,1008.6,82.14,12580,0,0,0,0,62.6
2019/5/14 0:20,60,23.13,6.84,67,354,255,0.1,0.8,2,19.8,20.1,76.8,1008.5,82.14,12580,0,0,0,0,62.6
2019/5/14 0:30,61,23.05,6.84,150,1,210,0,1,2.3,19.8,20,75.1,1008.2,82.14,12580,0,0,0,0,62.6
2019/5/14 0:40,62,22.95,6.84,85,338,116,0,0.7,2.6,19.9,20.1,74,1008.1,82.14,12580,0,0,0,0,62.6
2019/5/14 0:50,63,22.91,6.84,30,298,112,0,0.6,1.9,19.9,20.1,74.2,1007.9,82.14,12580,0,0,0,0,62.6
2019/5/14 1:00,64,22.92,6.84,132,0,242,0,0.7,2,20,20.1,69.9,1007.9,82.14,12580,0,0,0,0,62.6
2019/5/14 1:10,65,22.88,6.84,44,8,231,0,0.9,1.9,20.3,20.3,68.5,1008,82.14,12580,0,0,0,0,62.6
2019/5/14 1:20,66,22.87,6.84,45,321,236,0.1,0.8,1.5,20.3,20.5,68.8,1007.9,82.14,12580,0,0,0,0,62.6
2019/5/14 1:30,67,22.91,6.84,7,234,30,0,0.3,0.8,20.2,20.5,68.9,1007.8,82.15,12600,0.1,0,0,0,62.6
2019/5/14 1:40,68,22.94,6.84,114,46,167,0,0.4,0.8,20.3,20.4,69,1007.6,82.15,12610,0,0,0,0,62.6
2019/5/14 1:50,69,22.92,6.84,85,77,243,0,0.5,1.1,20.4,20.4,69,1007.7,82.15,12610,0,0,0,0,62.6
2019/5/14 2:00,70,22.87,6.84,275,293,331,0,0.4,0.9,20.2,20.3,71.6,1007.7,82.15,12620,0,0,0,0,62.6
2019/5/14 2:10,71,22.78,6.84,30,301,114,0,0.3,0.7,20.1,20.1,72.2,1007.8,82.15,12620,0,0,0,0,62.6
2019/5/14 2:20,72,22.71,6.84,22,352,81,0,0.4,1.2,20,20,72,1007.5,82.15,12620,0,0,0,0,62.6
2019/5/14 2:30,73,22.63,6.84,93,22,210,0,0.4,1,19.9,20,72.1,1007.4,82.16,12640,0,0,0,0,62.6
2019/5/14 2:40,74,22.55,6.84,94,302,326,0,0.5,1.1,19.8,19.9,71.8,1007.3,82.16,12640,0,0,0,0,62.6
2019/5/14 2:50,75,22.47,6.84,120,256,175,0,0.6,1.5,19.7,19.8,71.8,1007.2,82.16,12640,0,0,0,0,62.6
2019/5/14 3:00,76,22.38,6.84,171,292,352,0,0.8,2,19.8,19.8,67.3,1007.2,82.18,12660,0.9,0,0,0,62.6
2019/5/14 3:10,77,22.29,6.84,6,303,96,0,0.4,1,19.9,19.9,69.9,1007.3,82.22,12730,0,0,0,0,62.6
2019/5/14 3:20,78,22.24,6.84,162,276,327,0,0.4,1,19.7,19.7,70.5,1007.3,82.22,12730,0,0,0,0,62.6
2019/5/14 3:30,79,22.16,6.84,24,300,102,0,0.6,1.1,19.5,19.5,71.4,1007.3,82.22,12730,0,0,0,0,62.6
2019/5/14 3:40,80,22.07,6.84,72,329,273,0,0.7,1.6,19.2,19.3,72,1007.2,82.22,12730,0,0,0,0,62.6
2019/5/14 3:50,81,21.96,6.84,280,339,354,0,0.3,1,19.2,19.2,73.6,1007.1,82.22,12730,0,0,0,0,62.6
2019/5/14 4:00,82,21.85,6.84,244,180,296,0,0.3,0.8,19.2,19.2,72.1,1007.1,82.22,12730,0,0,0,0,62.6
2019/5/14 4:10,83,21.77,6.84,52,329,81,0,0.2,0.6,19.3,19.3,71.9,1007.1,82.22,12730,0,0,0,0,62.6
2019/5/14 4:20,84,21.69,6.84,116,10,244,0,0.4,0.9,19.6,19.4,71.2,1007.1,82.22,12730,0,0,0,0,62.6
2019/5/14 4:30,85,21.63,6.84,118,38,170,0,0.4,1.1,19.6,19.5,73,1007.1,82.22,12730,0,0,0,0,62.6
2019/5/14 4:40,86,21.58,6.84,35,311,112,0,0.7,1.8,19.3,19.4,72.1,1006.9,82.22,12730,0,0,0,0,62.6
2019/5/14 4:50,87,21.52,6.84,60,265,294,0,0.6,1.3,19.1,19.2,73.7,1006.9,82.22,12730,0,0,0,0,62.6
2019/5/14 5:00,88,21.47,6.84,2,245,105,0,0.6,2.5,19.5,19.4,71.8,1006.8,82.22,12730,0,0,0,0,62.6
2019/5/14 5:10,89,21.43,6.84,71,258,119,0,0.8,1.9,19.6,19.6,70.8,1007,82.22,12730,0,0,0,0,62.6
2019/5/14 5:20,90,21.37,6.84,151,22,222,0,0.9,1.7,19.4,19.6,71.2,1007.1,82.22,12730,0,0,0,0,62.6
2019/5/14 5:30,91,21.25,6.84,60,303,225,0,0.8,1.7,19.2,19.4,71.2,1007,82.22,12730,0,0,0,0,62.6
2019/5/14 5:40,92,21.18,6.84,180,258,320,0.1,0.7,1.3,19.1,19.2,72.3,1007.2,82.22,12730,0,0,0,0,62.6
2019/5/14 5:50,93,21.17,6.84,191,257,322,0.3,0.8,1.4,19.1,19.2,71.6,1007.1,82.22,12730,0,0,0,0,62.6
2019/5/14 6:00,94,21.25,6.84,207,261,316,0.1,0.8,2.2,19.3,19.4,71.3,1007.2,82.22,12730,0,0,0,0,62.6
2019/5/14 6:10,95,21.4,6.84,30,268,107,0,0.7,1.6,19.3,19.5,71.4,1007.4,82.22,12730,0,0,0,0,62.6
2019/5/14 6:20,96,21.52,6.84,49,246,294,0,0.9,2.2,19.4,19.5,71.1,1007.6,82.22,12730,0,0,0,0,62.6
2019/5/14 6:30,97,21.59,6.84,107,269,354,0.1,0.9,2.3,19.5,19.7,71.1,1007.6,82.22,12730,0,0,0,0,62.6
2019/5/14 6:40,98,21.62,6.84,30,242,357,0.1,0.9,2.1,19.6,19.7,70.9,1007.6,82.22,12730,0,0,0,0,62.6
2019/5/14 6:50,99,21.64,6.84,52,269,139,0,0.6,1.9,19.6,19.8,71.4,1007.8,82.22,12730,0,0,0,0,62.6
2019/5/14 7:00,100,21.7,6.84,122,255,194,0,0.4,1.4,19.7,19.9,70.9,1007.8,82.22,12730,0,0,0,0,62.6
2019/5/14 7:10,101,21.82,6.84,30,224,170,0,0.3,1.2,19.8,20,70.9,1007.8,82.22,12730,0,0,0,0,62.6
2019/5/14 7:20,102,21.96,6.84,143,50,189,0,0.6,2,20,20.3,70.6,1008,82.22,12730,0,0,0,0,62.6
2019/5/14 7:30,103,22.12,6.84,111,139,326,0.1,0.8,1.9,20,20.3,68.9,1008.1,82.22,12730,0,0,0,0,62.6
2019/5/14 7:40,104,22.32,6.84,102,129,127,0,0.5,1.7,20,20.5,69.2,1008.2,82.22,12730,0,0,0,0,62.6
2019/5/14 7:50,105,23.01,6.84,267,250,326,0,0.5,1.8,20.7,21.1,66.3,1008.1,82.22,12730,0,0,0,0,62.6
2019/5/14 8:00,106,24.27,6.84,266,244,306,0,0.5,1.4,21.6,22.3,63,1008.2,82.22,12730,0,0,0,0,62.6
2019/5/14 8:10,107,25.42,6.84,5,42,355,0,0.4,1.4,21.9,22.9,61.7,1008.1,82.22,12730,0,0,0,0,62.6
2019/5/14 8:20,108,26.12,6.84,245,79,255,0,0.8,1.9,22,23.1,59.8,1008.1,82.22,12730,0,0,0,0,62.6
2019/5/14 8:30,109,26.45,6.84,148,49,281,0,0.7,1.9,22.2,23.1,59.3,1008.2,82.22,12730,0,0,0,0,62.6
2019/5/14 8:40,110,26.51,6.84,31,22,244,0.1,0.9,2.8,22.3,23.2,58.6,1008.1,82.22,12730,0,0,0,0,62.6
2019/5/14 8:50,111,26.44,6.84,202,49,251,0.1,1.3,3.1,22.1,22.9,62.5,1008.2,82.22,12730,0,0,0,0,62.6
2019/5/14 9:00,112,26.28,6.84,135,44,169,0.1,1,2.4,21.8,22.6,62.5,1008.2,82.22,12730,0,0,0,0,62.6
2019/5/14 9:10,113,26.25,6.84,144,41,206,0.1,0.9,2.5,22,22.7,63.7,1008.2,82.22,12730,0,0,0,0,62.6
2019/5/14 9:20,114,26.41,6.84,136,176,244,0,0.8,2.2,22.3,22.9,62.1,1008.2,82.22,12730,0,0,0,0,62.6
2019/5/14 9:30,115,26.83,6.84,238,17,299,0.1,0.8,2.3,22.7,23.6,58,1008.3,82.22,12730,0,0,0,0,62.6
2019/5/14 9:40,116,27.23,6.84,200,33,271,0.1,1.1,3,22.5,23.6,58.8,1008.3,82.22,12730,0,0,0,0,62.6
2019/5/14 9:50,117,27.6,6.84,137,4,191,0,1.1,3.1,22.6,23.7,58.1,1008.4,82.22,12730,0,0,0,0,62.6
2019/5/14 10:00,118,27.94,6.85,7,37,280,0,1.4,4.1,23.1,23.9,56.2,1008.4,82.22,12730,0,0,0,0,62.6
2019/5/14 10:10,119,28.63,6.85,22,9,310,0.1,1.3,3.9,23.2,24.4,55.4,1008.6,82.22,12730,0,0,0,0,62.6
2019/5/14 10:20,120,28.99,6.85,184,35,250,0.1,1.2,3.3,23.2,24.4,55.5,1008.6,82.22,12730,0,0,0,0,62.6
2019/5/14 10:30,121,28.92,6.85,76,36,154,0.1,1.3,3.5,22.9,24,57.3,1008.7,82.22,12740,0,0,0,0,62.6
2019/5/14 10:40,122,29.06,6.85,335,98,353,0.1,1.3,3.7,23.5,24.4,53.8,1008.6,82.22,12740,0,0,0,0,62.6
2019/5/14 10:50,123,29.47,6.85,156,19,357,0.1,1.4,3.9,23.9,24.9,52.1,1008.5,82.22,12740,0,0,0,0,62.6
2019/5/14 11:00,124,30,6.85,47,17,101,0.1,1.4,4.5,24.6,25.6,48.1,1008.3,82.22,12740,0,0,0,0,62.6
2019/5/14 11:10,125,30.78,6.85,56,55,295,0,1.3,4.4,25.1,26.4,45.8,1008.2,82.22,12740,0,0,0,0,62.6
2019/5/14 11:20,126,31.02,6.85,54,32,314,0.1,1.7,4.6,23.8,25.5,48.1,1008.3,82.22,12740,0,0,0,0,62.6
2019/5/14 11:30,127,30.93,6.85,212,46,294,0.1,1.4,3.6,23.9,25.4,47.2,1008.3,82.22,12740,0,0,0,0,62.6
2019/5/14 11:40,128,30.75,6.85,103,43,342,0.1,1.7,4.1,23.8,25.1,48.5,1008.2,82.22,12740,0,0,0,0,62.6
2019/5/14 11:50,129,30.5,6.85,176,35,269,0.2,1.7,4.2,23.8,25,48.8,1008.2,82.22,12740,0,0,0,0,62.6
2019/5/14 12:00,130,30.3,6.85,22,52,48,0.1,1.7,4.6,24,25.1,48,1008.1,82.22,12740,0,0,0,0,62.6
2019/5/14 12:10,131,30.24,6.85,189,35,258,0.1,1.5,4.4,24.3,25.3,47.3,1007.9,82.22,12740,0,0,0,0,62.6
2019/5/14 12:20,132,30.55,6.85,266,0,286,0.1,1.7,5.3,24.8,26,46.6,1007.8,82.22,12740,0,0,0,0,62.6
2019/5/14 12:30,133,30.95,6.85,98,42,274,0.1,1.7,4.7,24.5,26.1,45.1,1007.7,82.22,12740,0,0,0,0,62.6
2019/5/14 12:40,134,31.27,6.85,117,52,354,0.1,1.5,4.2,26.1,26.9,41.9,1007.7,82.22,12740,0,0,0,0,62.6
2019/5/14 12:50,135,31.64,6.85,154,33,169,0.1,1.6,4.3,25.6,27,40.5,1007.5,82.22,12740,0,0,0,0,62.6
2019/5/14 13:00,136,31.89,6.85,105,33,257,0.1,1.7,5.6,25.8,27.4,39.2,1007.4,82.22,12740,0,0,0,0,62.6
2019/5/14 13:10,137,31.97,6.85,182,106,226,0.1,1.9,6.2,25.2,26.9,44.6,1007.4,82.22,12740,0,0,0,0,62.6
2019/5/14 13:20,138,31.87,6.85,107,13,118,0.1,1.7,4.9,25.4,26.8,45.6,1007.4,82.22,12740,0,0,0,0,62.6
2019/5/14 13:30,139,31.69,6.85,249,161,283,0.1,2.1,5.8,24.6,26.4,47.2,1007.4,82.22,12740,0,0,0,0,62.6
2019/5/14 13:40,140,31.32,6.85,128,51,224,0.3,2.4,6.4,25,26.4,44.6,1007.2,82.22,12740,0,0,0,0,62.6
2019/5/14 13:50,141,30.83,6.85,111,23,315,0.2,1.8,5.2,25.7,26.9,44.7,1007.1,82.22,12740,0,0,0,0,62.6
2019/5/14 14:00,142,30.56,6.85,171,340,213,0.2,1.7,7.2,25.8,27.3,45.3,1007,82.22,12740,0,0,0,0,62.6
2019/5/14 14:10,143,30.31,6.85,128,223,231,0,1.3,5.4,26.5,27.6,41.3,1006.7,82.22,12740,0,0,0,0,62.6
2019/5/14 14:20,144,30.2,6.85,45,46,123,0.1,1.8,5.9,26.3,28,39.5,1006.6,82.22,12740,0,0,0,0,62.6
2019/5/14 14:30,145,30.03,6.85,20,20,228,0.1,1.5,4.3,26.4,28,38.4,1006.6,82.22,12740,0,0,0,0,62.6
2019/5/14 14:40,146,29.89,6.85,115,17,126,0.1,1.2,3.9,26.6,28.2,40.1,1006.5,82.22,12740,0,0,0,0,62.6
2019/5/14 14:50,147,29.73,6.85,242,341,0,0.1,1.5,5.3,26.2,28,39.3,1006.5,82.22,12740,0,0,0,0,62.6
2019/5/14 15:00,148,29.48,6.85,149,44,313,0.1,1.8,4.5,25.5,27.4,39.4,1006.4,82.22,12740,0,0,0,0,62.6
2019/5/14 15:10,149,29.21,6.85,97,46,179,0,1.7,5.5,26.6,27.8,35,1006.3,82.22,12740,0,0,0,0,62.6
2019/5/14 15:20,150,29.01,6.85,45,48,71,0.1,2,5.8,26.1,27.6,36,1006.2,82.22,12740,0,0,0,0,62.6
2019/5/14 15:30,151,28.79,6.85,30,83,111,0.1,1.7,6.1,25.9,27.4,34.8,1006.1,82.22,12740,0,0,0,0,62.6
2019/5/14 15:40,152,28.67,6.85,210,356,265,0.2,1.2,4.3,27,28,33.9,1006.1,82.22,12740,0,0,0,0,62.6
2019/5/14 15:50,153,28.67,6.85,146,41,312,0.1,1.5,4.2,25.9,27.7,36.4,1006.1,82.22,12740,0,0,0,0,62.6
2019/5/14 16:00,154,28.61,6.85,192,346,213,0.1,1.4,4.1,26.4,27.7,36.2,1005.8,82.22,12740,0,0,0,0,62.6
2019/5/14 16:10,155,28.47,6.85,149,66,210,0.1,1.7,4.6,26,27.3,39.8,1006,82.22,12740,0,0,0,0,62.6
2019/5/14 16:20,156,28.4,6.85,15,18,86,0.1,1.4,4.7,26,27.2,40.2,1005.9,82.22,12740,0,0,0,0,62.6
2019/5/14 16:30,157,28.33,6.85,54,0,266,0.1,1.3,4.2,25.8,27,40.2,1005.8,82.22,12740,0,0,0,0,62.6
2019/5/14 16:40,158,28.24,6.85,181,312,335,0.1,1.2,3.5,25.9,27,40.2,1005.8,82.22,12740,0,0,0,0,62.6
2019/5/14 16:50,159,28.16,6.85,NA,204,133,0.1,1.3,3.3,25.7,26.8,40.2,1006,82.22,12740,0,0,0,0,62.6
2019/5/14 17:00,160,28.08,6.85,NA,NA,320,0.1,1.1,4.4,25.6,26.5,41.6,1005.9,82.22,12740,0,0,0,0,62.6
2019/5/14 17:10,161,28,6.85,NA,NA,NA,0.1,1.1,3.4,25.7,26.6,43,1005.9,82.22,12740,0,0,0,0,62.6
2019/5/14 17:20,162,27.93,6.85,NA,NA,NA,NA,1.3,4.5,25,26.3,44.5,1005.9,82.22,12740,0,0,0,0,62.6
2019/5/14 17:30,163,27.75,6.85,NA,NA,NA,NA,NA,3.8,24.9,25.8,44.7,1005.7,82.22,12740,0,0,0,0,62.6
2019/5/14 17:40,164,27.59,6.85,NA,NA,NA,NA,NA,NA,24.8,25.6,45.7,1005.7,82.22,12740,0,0,0,0,62.6
2019/5/14 17:50,165,27.39,6.85,30,68,166,0.1,1.4,3.7,24.6,25.3,46.4,1005.9,82.22,12740,0,0,0,0,62.6
2019/5/14 18:00,166,27.19,6.85,51,9,276,0.1,1.1,3,24.6,25.3,47.2,1005.9,82.22,12740,0,0,0,0,62.6
2019/5/14 18:10,167,27.05,6.85,96,37,262,0,1.5,8.2,24.9,25.4,40.9,1005.9,82.22,12740,0,0,0,0,62.6
2019/5/14 18:20,168,26.94,6.85,202,59,267,0.2,2.6,8.3,25.4,25.6,37.6,1005.9,82.22,12740,0,0,0,0,62.6
2019/5/14 18:30,169,26.8,6.85,166,55,181,0.2,2,6.4,24.9,25.3,38,1005.9,82.22,12740,0,0,0,0,62.6
2019/5/14 18:40,170,26.64,6.85,225,67,328,0.2,1.8,6.1,24.7,25.1,39.1,1006,82.22,12740,0,0,0,0,62.6
2019/5/14 18:50,171,26.42,6.85,131,35,210,0.1,1.7,4.2,24.2,24.6,42,1006.2,82.22,12740,0,0,0,0,62.6
2019/5/14 19:00,172,26.18,6.84,136,40,254,0.1,1.4,4.4,24.1,24.4,41.5,1006.2,82.22,12740,0,0,0,0,62.6
2019/5/14 19:10,173,25.95,6.85,228,50,290,0.1,1.8,5.8,24,24.2,40.5,1006.3,82.22,12740,0,0,0,0,62.6
2019/5/14 19:20,174,25.68,6.84,97,51,203,0.1,1.9,4.6,23.6,23.8,41.2,1006.3,82.22,12740,0,0,0,0,62.6
2019/5/14 19:30,175,25.39,6.84,195,30,210,0.1,1.7,4.3,23.3,23.6,42,1006.4,82.22,12740,0,0,0,0,62.6
2019/5/14 19:40,176,25.14,6.84,122,32,169,0.1,1.6,4.2,23.2,23.4,42.4,1006.4,82.22,12740,0,0,0,0,62.6
2019/5/14 19:50,177,24.93,6.84,210,47,0,0.1,1.5,5,23.1,23.3,43.6,1006.5,82.22,12740,0,0,0,0,62.6
2019/5/14 20:00,178,24.76,6.84,210,29,284,0,1.3,4,22.8,23.1,45.7,1006.5,82.22,12740,0,0,0,0,62.6
2019/5/14 20:10,179,24.59,6.84,51,316,182,0.2,0.8,2.1,22.3,22.6,46.9,1006.7,82.22,12740,0,0,0,0,62.6
2019/5/14 20:20,180,24.46,6.84,38,271,336,0,0.4,1.2,22,22.2,48.3,1006.8,82.22,12740,0,0,0,0,62.6
2019/5/14 20:30,181,24.34,6.84,30,286,125,0,0.3,0.9,21.8,21.9,49.4,1006.8,82.22,12740,0,0,0,0,62.6
2019/5/14 20:40,182,24.22,6.84,100,28,180,0,0.5,1.4,21.9,21.8,49.6,1006.8,82.22,12740,0,0,0,0,62.6
2019/5/14 20:50,183,24.04,6.84,95,300,358,0.1,0.7,1.4,21.4,21.5,51.6,1006.9,82.22,12740,0,0,0,0,62.6
2019/5/14 21:00,184,23.89,6.84,102,316,346,0,0.4,0.8,21.3,21.3,52.1,1006.9,82.22,12740,0,0,0,0,62.6
2019/5/14 21:10,185,23.71,6.84,54,339,210,0,0.6,1.1,21.5,21.3,51.9,1007.2,82.22,12740,0,0,0,0,62.6
2019/5/14 21:20,186,23.54,6.84,170,184,219,0,0.4,0.9,21.1,21.1,53.7,1007.1,82.22,12740,0,0,0,0,62.6
2019/5/14 21:30,187,23.42,6.84,224,358,303,0,0.3,0.9,20.9,20.9,54.5,1007.2,82.22,12740,0,0,0,0,62.6
2019/5/14 21:40,188,23.32,6.84,156,70,294,0,0.4,1.1,20.8,20.8,54.9,1007.2,82.22,12740,0,0,0,0,62.6
2019/5/14 21:50,189,23.21,6.84,170,339,210,0,0.4,1.1,20.8,20.7,55.7,1007.2,82.22,12740,0,0,0,0,62.6
2019/5/14 22:00,190,23.11,6.84,123,339,149,0,0.4,1.2,20.7,20.7,55.1,1007.2,82.22,12740,0,0,0,0,62.6
2019/5/14 22:10,191,23.01,6.84,107,6,210,0.1,0.6,1.3,20.9,20.8,54,1007.1,82.22,12740,0,0,0,0,62.6
2019/5/14 22:20,192,22.88,6.84,30,310,125,0,0.4,1,20.7,20.8,54.9,1007.2,82.22,12740,0,0,0,0,62.6
2019/5/14 22:30,193,22.79,6.84,22,294,98,0,0.3,1.1,20.4,20.4,55.6,1007.3,82.22,12740,0,0,0,0,62.6
2019/5/14 22:40,194,22.71,6.84,65,357,142,0,0.4,1.1,20.4,20.3,55.3,1007.2,82.22,12740,0,0,0,0,62.6
2019/5/14 22:50,195,22.64,6.84,80,7,165,0,0.4,0.8,20.3,20.3,55.1,1007.1,82.22,12740,0,0,0,0,62.6
2019/5/14 23:00,196,22.56,6.84,87,20,120,0,0.5,1.3,20.5,20.4,54.7,1007.2,82.22,12740,0,0,0,0,62.6
2019/5/14 23:10,197,22.5,6.84,74,315,81,0,0.3,0.7,20.3,20.3,55.9,1007.1,82.22,12740,0,0,0,0,62.6
2019/5/14 23:20,198,22.42,6.84,116,52,210,0,0.4,1.1,20.3,20.2,55.3,1007.1,82.22,12740,0,0,0,0,62.6
2019/5/14 23:30,199,22.33,6.84,69,263,289,0,0.4,1,20.2,20.1,55.7,1007.2,82.22,12740,0,0,0,0,62.6
2019/5/14 23:40,200,22.21,6.84,351,327,352,0,0.5,0.9,20,20,56.2,1007.1,82.22,12740,0,0,0,0,62.6
2019/5/14 23:50,201,22.07,6.84,91,275,275,0,0.6,1.4,19.7,19.8,57.2,1007,82.22,12740,0,0,0,0,62.6
2019/5/15 0:00,202,21.94,6.84,97,256,349,0,0.5,0.9,19.6,19.6,57.6,1007,82.22,12740,0,0,0,0,62.6
2019/5/15 0:10,203,21.85,6.84,126,285,343,0,0.3,0.8,19.5,19.5,57,1007,82.22,12740,0,0,0,0,62.6
2019/5/15 0:20,204,21.78,6.84,8,60,30,0,0.3,0.9,19.5,19.5,58.2,1007,82.22,12740,0,0,0,0,62.6
2019/5/15 0:30,205,21.7,6.84,70,137,138,0,0.4,1.5,19.5,19.4,60.3,1006.9,82.22,12740,0,0,0,0,62.6
2019/5/15 0:40,206,21.61,6.84,132,52,162,0,0.5,1.3,19.3,19.3,61.8,1006.9,82.22,12740,0,0,0,0,62.6
2019/5/15 0:50,207,21.49,6.84,230,6,347,0,0.3,1.1,19.1,19.2,62.1,1006.9,82.22,12740,0,0,0,0,62.6
2019/5/15 1:00,208,21.34,6.84,291,315,298,0,0.2,0.6,18.8,18.8,63.1,1006.8,82.22,12740,0,0,0,0,62.6
2019/5/15 1:10,209,21.21,6.84,205,275,341,0.1,0.5,1,18.6,18.6,64.5,1007,82.22,12740,0,0,0,0,62.6
2019/5/15 1:20,210,21.09,6.84,210,270,336,0.1,0.4,0.8,18.4,18.4,64.7,1007.1,82.22,12740,0,0,0,0,62.6
2019/5/15 1:30,211,21,6.84,171,50,244,0,0.5,1.1,18.4,18.4,63.9,1007,82.22,12740,0,0,0,0,62.6
2019/5/15 1:40,212,20.91,6.84,75,34,210,0.1,0.8,1.9,18.1,18.3,65.4,1006.8,82.22,12740,0,0,0,0,62.6
2019/5/15 1:50,213,20.75,6.84,23,310,233,0,0.5,1.1,17.8,18,66.6,1006.8,82.22,12740,0,0,0,0,62.6
2019/5/15 2:00,214,20.59,6.84,176,111,244,0,0.4,0.9,17.8,17.8,66.8,1006.8,82.22,12740,0,0,0,0,62.6
2019/5/15 2:10,215,20.46,6.84,217,64,248,0,0.3,0.7,17.7,17.7,66.2,1006.7,82.22,12740,0,0,0,0,62.6
2019/5/15 2:20,216,20.36,6.84,262,55,337,0,0.3,0.9,17.7,17.7,62.1,1006.9,82.22,12740,0,0,0,0,62.6
2019/5/15 2:30,217,20.26,6.84,67,22,303,0,0.3,0.7,17.7,17.6,61.3,1006.9,82.22,12740,0,0,0,0,62.6
2019/5/15 2:40,218,20.16,6.84,115,143,210,0,0.3,1.2,17.7,17.6,62.4,1007,82.22,12740,0,0,0,0,62.6
2019/5/15 2:50,219,20.06,6.84,160,259,313,0,0.4,0.8,17.5,17.5,64,1006.9,82.22,12740,0,0,0,0,62.6
2019/5/15 3:00,220,19.94,6.84,199,266,329,0.1,0.5,0.8,17.2,17.2,66,1006.9,82.22,12740,0,0,0,0,62.6
2019/5/15 3:10,221,19.82,6.84,200,253,313,0.3,0.6,1.1,17.4,17.3,64.9,1007.1,82.22,12740,0,0,0,0,62.6
2019/5/15 3:20,222,19.72,6.84,223,289,330,0.1,0.6,0.9,17.3,17.3,66.7,1007.1,82.22,12740,0,0,0,0,62.6
2019/5/15 3:30,223,19.63,6.84,229,289,343,0.2,0.5,1,17.3,17.3,70.2,1007.1,82.22,12740,0,0,0,0,62.6
2019/5/15 3:40,224,19.57,6.84,114,16,165,0,0.3,0.8,17.3,17.3,71,1007,82.22,12740,0,0,0,0,62.6
2019/5/15 3:50,225,19.52,6.84,133,66,162,0,0.3,0.8,17.4,17.3,70.7,1006.9,82.22,12740,0,0,0,0,62.6
2019/5/15 4:00,226,19.48,6.83,67,37,281,0,0.4,1.3,17.3,17.3,68.8,1006.8,82.22,12740,0,0,0,0,62.6
2019/5/15 4:10,227,19.42,6.84,114,45,163,0,0.3,0.9,17,17.1,66.4,1006.8,82.22,12740,0,0,0,0,62.6
2019/5/15 4:20,228,19.28,6.83,156,15,256,0,0.5,0.9,16.8,16.9,63.8,1006.8,82.22,12740,0,0,0,0,62.6
2019/5/15 4:30,229,19.14,6.83,137,36,239,0,0.4,0.9,16.7,16.8,63.8,1006.9,82.22,12740,0,0,0,0,62.6
2019/5/15 4:40,230,19.05,6.83,131,21,195,0,0.3,0.8,16.8,16.7,69.2,1007,82.22,12740,0,0,0,0,62.6
2019/5/15 4:50,231,18.97,6.83,205,187,210,0,0.5,1.3,16.9,16.9,69.5,1007.1,82.22,12740,0,0,0,0,62.6
2019/5/15 5:00,232,18.91,6.83,33,239,141,0,0.5,1.1,17,16.9,69,1007.1,82.22,12740,0,0,0,0,62.6
2019/5/15 5:10,233,18.87,6.83,128,8,241,0,0.6,1.8,17.2,17.1,64.6,1007.1,82.22,12740,0,0,0,0,62.6
2019/5/15 5:20,234,18.83,6.83,81,13,244,0.1,0.9,2.5,17.4,17.4,63.5,1007.2,82.22,12740,0,0,0,0,62.6
2019/5/15 5:30,235,18.79,6.83,135,35,252,0.1,1.2,2.9,17.6,17.5,58.8,1007.3,82.22,12740,0,0,0,0,62.6
2019/5/15 5:40,236,18.79,6.83,148,32,297,0.1,1.6,3.8,18,17.9,58.5,1007.5,82.22,12740,0,0,0,0,62.6
2019/5/15 5:50,237,18.83,6.83,112,12,299,0.2,1.3,2.6,17.8,17.9,59.1,1007.6,82.22,12740,0,0,0,0,62.6
2019/5/15 6:00,238,18.95,6.84,87,18,154,0,0.7,1.9,17.8,18,59.4,1007.8,82.22,12740,0,0,0,0,62.6
2019/5/15 6:10,239,19.22,6.84,189,26,354,0.1,1.2,3.5,18,18.1,57.5,1007.9,82.22,12740,0,0,0,0,62.6